Regional Weather Roundup
Issued by NWS State College, PA

Home | Current Version | Previous Version | Graphics & Text | Print | Product List | Glossary Off
Versions: 1 2 3 4 5 6 7 8 9 10 11 12 13 14 15 16 17 18 19 20 21 22 23 24 25 26 27 28 29 30 31 32 33 34 35 36 37 38 39 40 41 42 43 44 45 46 47 48 49 50

943
ASUS41 KCTP 220303
RWRCTP

REGIONAL WEATHER ROUNDUP
NATIONAL WEATHER SERVICE STATE COLLEGE PA
1000 PM EST TUE FEB 21 2017

Note: "fair" indicates few or no clouds below 12,000 feet with no
significant weather and/or obstructions to visibility.

* = STATION THAT DOES NOT REPORT PRECIPITATION /E.G. RAIN...SNOW...ETC/
    THUNDER OR FOG.

PAZ002>004-007>009-013>016-020>023-029>032-220400-
WESTERN PENNSYLVANIA

CITY           SKY/WX    TMP DP  RH WIND       PRES   REMARKS
ERIE           CLOUDY    49  44  83 S6        29.97F
MEADVILLE      CLOUDY    54  41  61 CALM      29.97S
FRANKLIN*      CLOUDY    52  37  58 CALM      29.98F
NEW CASTLE     CLOUDY    56  44  64 CALM      29.98R
BEAVER COUNTY  NOT AVBL
BUTLER*        CLOUDY    57  43  58 S5        29.98F
PITTSBURGH INT CLOUDY    57  45  64 SE5       29.96F
PITTSBURGH     CLOUDY    58  37  45 S7        29.98F
INDIANA*       CLOUDY    54  36  50 VRB6      30.02F
LATROBE        PTCLDY    52  39  62 CALM      30.01S
WASHINGTON CO* CLOUDY    52  43  71 SW3       30.01R
$$

PAZ004>006-010>012-017>019-024>028-033>037-041-042-045-046-049>053-220400-
CENTRAL PENNSYLVANIA

CITY           SKY/WX    TMP DP  RH WIND       PRES   REMARKS
BRADFORD       PTCLDY    45  30  55 SE6       29.99S
DUBOIS         CLOUDY    48  30  49 SE6       29.99F
CLEARFIELD       N/A    N/A N/A N/A MISG      30.02F
JOHNSTOWN      MOCLDY    48  33  56 S12       30.03S
ALTOONA        PTCLDY    49  34  56 S7        30.06F
STATE COLLEGE  NOT AVBL
WILLIAMSPORT   NOT AVBL
SELINSGROVE    NOT AVBL
FT INDIANTOWN  MOCLDY    43  30  61 CALM      30.13F
CAPITAL CITY   NOT AVBL
HARRISBURG     CLOUDY    46  33  60 S6        30.12F
YORK           NOT AVBL
$$

PAZ038>040-043-044-047-048-054-055-060>062-067>071-220400-
EASTERN PENNSYLVANIA

CITY           SKY/WX    TMP DP  RH WIND       PRES   REMARKS
SCRANTON       NOT AVBL
MOUNT POCONO   NOT AVBL
ALLENTOWN      NOT AVBL
QUAKERTOWN*    PTCLDY    41  32  70 SW6       30.15F
READING        NOT AVBL
LANCASTER      NOT AVBL
COATESVILLE    CLOUDY    39  34  81 SE3       30.16F
POTTSTOWN      NOT AVBL
BLUE BELL      PTCLDY    41  32  70 S6        30.17F
DOYLESTOWN     NOT AVBL
WILLOW GROVE   NOT AVBL
NORTH PHILA    NOT AVBL
PHILADELPHIA   MOCLDY    43  32  65 S5        30.19F
$$




USA.gov is the U.S. government's official web portal to all federal, state and local government web resources and services.